Starlink 30559

operational
NORAD ID: 58039 Int'l Des: 2023-156 Owner: SPXS Country: US Constellation: starlink
LEOCIRCULAR

Starlink 30559について

説明を読み込み中...

リアルタイム位置

3D地球を読み込み中...

次回通過

高度履歴

Altitude vs Time

uPlot chart will show altitude changes over time

軌道要素

1 58039U 23156M 25305.57612225 .00079407 00000-0 32070-2 0 9998
2 58039 53.1651 52.0032 0005975 351.9680 8.1222 15.24074288115292
Epoch: Nov 1, 2025 • Age: 22 hours

現在のステータス

高度 500.5 km
速度 7.62 km/s
衛星直下点 50.63°N, 64.34°W
打ち上げ日 Oct 9, 2023
運用期間 2 years
タイプ internet

技術仕様

分類 Payload
質量 730.00 kg
乾燥質量 700.00 kg
総質量 730.00 kg
長さ 0.30 m
直径 4.10 m
スパン 29.00 m
形状 Box + pan
製造者 SPXS
バスタイプ Starlink V2M
フェーズステータス In Orbit
所有者/国 SPXS/US

大規模コンステレーション

Loading constellations...